Weather History for West Palm Beach, FL

Change the Weather History Date:

Tuesday, July 23, 2013

  Actual Average Record
Temperature  
Mean Temperature 86 °F 83 °F  
Max Temperature 93 °F 90 °F 98 °F (1942)
Min Temperature 79 °F 76 °F 68 °F (1921)
Degree Days  
Heating Degree Days 0 0  
Month to date heating degree days 0 0  
Since 1 June heating degree days 0 0  
Since 1 July heating degree days 0 0  
Cooling Degree Days 21 18  
Month to date cooling degree days 415 403  
Year to date cooling degree days 2089 2002  
Since 1 June cooling degree days 904 893  
Growing Degree Days 36 (Base 50)    
Moisture  
Dew Point 72 °F    
Average Humidity 62    
Maximum Humidity 79    
Minimum Humidity 44    
Precipitation  
Precipitation 0.07 in 0.17 in 3.50 in (1920)
Month to date precipitation 5.59 4.34  
Year to date precipitation 43.27 31.35  
Snow  
Snow 0.00 in - - ()
Month to date snowfall 0.0  
Since 1 June snowfall 0.0  
Since 1 July snowfall 0.0  
Snow Depth 0.00 in    
Sea Level Pressure  
Sea Level Pressure 30.04 in    
Wind  
Wind Speed 8 mph (South)    
Max Wind Speed 18 mph    
Max Gust Speed 26 mph    
Visibility 10 miles    
Events Rain    
T = Trace of Precipitation, MM = Missing Value Source: NWS Daily Summary

Daily Weather History Graph

Daily Weather History Graph

Search for Another Location

Airport:

Trip Planner

Search our weather history database for the weather conditions in past years. The results will help you decide how hot, cold, wet, or windy it might be!

Date:

Astronomy

Jul. 23, 2013 Rise Set
Actual Time 6:40 AM EDT 8:12 PM EDT
Civil Twilight 6:15 AM EDT 8:38 PM EDT
Nautical Twilight 5:44 AM EDT 9:08 PM EDT
Astronomical Twilight 5:13 AM EDT 9:40 PM EDT
Moon 8:54 PM EDT (7/23) 7:36 AM EDT (7/23)
Length of Visible Light 14h 22m
Length of Day
13h 32m
Full, 99% of the Moon is Illuminated
Jul 23
Full
Jul 29
Last Quarter
Aug 6
New
Aug 14
First Quarter
Aug 20
Full

Hourly Weather History & Observations

Time (EDT) Temp. Heat Index Dew Point Humidity Pressure Visibility Wind Dir Wind Speed Gust Speed Precip Events Conditions
12:53 AM 81.0 °F 85.2 °F 72.0 °F 74% 30.10 in 10.0 mi SW 3.5 mph - N/A   Scattered Clouds
1:53 AM 81.0 °F 85.8 °F 73.0 °F 77% 30.09 in 10.0 mi Calm Calm - N/A   Mostly Cloudy
2:53 AM 81.0 °F 85.8 °F 73.0 °F 77% 30.08 in 10.0 mi South 4.6 mph - N/A   Mostly Cloudy
3:53 AM 80.1 °F 84.2 °F 73.0 °F 79% 30.06 in 10.0 mi South 4.6 mph - N/A   Scattered Clouds
4:53 AM 80.1 °F 83.8 °F 72.0 °F 76% 30.05 in 10.0 mi South 4.6 mph - N/A   Partly Cloudy
5:53 AM 80.1 °F 83.8 °F 72.0 °F 76% 30.06 in 10.0 mi SW 3.5 mph - N/A   Partly Cloudy
6:53 AM 80.1 °F 84.2 °F 73.0 °F 79% 30.08 in 10.0 mi SW 4.6 mph - N/A   Mostly Cloudy
7:53 AM 82.0 °F 87.9 °F 73.9 °F 76% 30.09 in 10.0 mi SSW 6.9 mph - N/A   Mostly Cloudy
8:53 AM 84.9 °F 92.1 °F 73.9 °F 69% 30.09 in 10.0 mi SSW 6.9 mph - N/A   Scattered Clouds
9:53 AM 87.1 °F 92.0 °F 70.0 °F 57% 30.09 in 10.0 mi SW 8.1 mph - N/A   Scattered Clouds
10:53 AM 88.0 °F 92.9 °F 70.0 °F 55% 30.09 in 10.0 mi SSW 4.6 mph - N/A   Scattered Clouds
11:53 AM 89.1 °F 93.7 °F 69.1 °F 52% 30.08 in 10.0 mi WSW 6.9 mph - N/A   Mostly Cloudy
12:53 PM 93.0 °F 97.4 °F 68.0 °F 44% 30.06 in 10.0 mi Variable 5.8 mph - N/A   Scattered Clouds
1:53 PM 93.0 °F 97.9 °F 69.1 °F 45% 30.05 in 10.0 mi South 5.8 mph - N/A   Scattered Clouds
2:53 PM 90.0 °F 99.0 °F 73.9 °F 59% 30.02 in 10.0 mi SE 15.0 mph - N/A   Scattered Clouds
3:53 PM 91.0 °F 100.4 °F 73.9 °F 57% 30.00 in 10.0 mi SE 13.8 mph - N/A   Scattered Clouds
4:53 PM 89.1 °F 97.0 °F 73.0 °F 59% 29.99 in 10.0 mi SE 10.4 mph - N/A   Scattered Clouds
5:26 PM 86.0 °F 95.1 °F 75.2 °F 70% 29.99 in 2.0 mi SE 18.4 mph 21.9 mph 0.00 in Rain Heavy Rain
5:33 PM 84.2 °F 92.3 °F 75.2 °F 74% 29.99 in 9.0 mi SE 11.5 mph - 0.07 in Rain Light Rain
5:53 PM 86.0 °F 95.1 °F 75.0 °F 70% 29.99 in 10.0 mi SE 15.0 mph - 0.07 in Rain Light Rain
6:53 PM 86.0 °F 95.1 °F 75.0 °F 70% 29.99 in 10.0 mi SE 11.5 mph - 0.00 in   Scattered Clouds
7:53 PM 84.9 °F 91.4 °F 73.0 °F 67% 29.98 in 10.0 mi SE 10.4 mph - N/A   Scattered Clouds
8:53 PM 84.0 °F 89.6 °F 72.0 °F 67% 29.98 in 10.0 mi SSE 10.4 mph - N/A   Scattered Clouds
9:53 PM 84.0 °F 89.6 °F 72.0 °F 67% 29.99 in 10.0 mi South 6.9 mph - N/A   Scattered Clouds
10:53 PM 84.0 °F 89.6 °F 72.0 °F 67% 30.01 in 10.0 mi South 6.9 mph - 0.00 in   Scattered Clouds
11:53 PM 84.0 °F 89.6 °F 72.0 °F 67% 30.02 in 10.0 mi SSW 8.1 mph - N/A   Mostly Cloudy